Location: Charleville
(26.4021°S, 146.2454°E)
Time: 23:12:07
(UTC+10:00)

Envisat - Pass Details

Date: 10 November 2025
Orbit: 761 x 762 km, 98.4° (Epoch: 13 December)

Event Time Altitude Azimuth Distance (km) Brightness Sun altitude
Exits shadow 01:06:10 11° 133° (SE) 2,275 5.9 -43.6°
Drops below altitude 10° 01:06:25 10° 135° (SE) 2,312 6.0 -43.6°
Sets 01:10:12 0° 164° (SSE) 3,248 7.0 -43.2°
